Leadville, CO

2:44 AM MDT on March 27, 2017 (GMT -0600)
Lake County

Weather History for KLXV - May, 2013

Change the Weather History Date:

Thursday, May 2, 2013

  Actual Average Record
Temperature  
Mean Temperature 21 °F -  
Max Temperature 33 °F 49 °F 63 °F (1986)
Min Temperature 8 °F 23 °F 3 °F (2011)
Degree Days  
Heating Degree Days 44 29  
Month to date heating degree days 83 58  
Since 1 July heating degree days 10053 10059  
Cooling Degree Days 0 0  
Month to date cooling degree days 0 0  
Year to date cooling degree days 0 0  
Moisture  
Dew Point 7 °F    
Average Humidity 61    
Maximum Humidity 92    
Minimum Humidity 30    
Precipitation  
Precipitation T in 0.04 in 0.20 in (2001)
Month to date precipitation 0.23 0.07  
Year to date precipitation 5.74 3.40  
Sea Level Pressure  
Sea Level Pressure 30.45 in    
Wind  
Wind Speed 8 mph (NNE)    
Max Wind Speed 21 mph    
Max Gust Speed 25 mph    
Visibility 9 miles    
Events Snow    
T = Trace of Precipitation, MM = Missing Value Source: NWS Daily Summary

Daily Weather History Graph

Daily Weather History Graph

Search for Another Location

Airport or City:

Trip Planner

Search our weather history database for the weather conditions in past years. The results will help you decide how hot, cold, wet, or windy it might be!

Date:

Astronomy

May. 02, 2013 Rise Set
Actual Time 6:05 AM MDT 7:59 PM MDT
Civil Twilight 5:36 AM MDT 8:28 PM MDT
Nautical Twilight 5:00 AM MDT 9:04 PM MDT
Astronomical Twilight 4:23 AM MDT 9:42 PM MDT
Moon 1:51 AM MDT (5/2) 12:55 PM MDT (5/2)
Length of Visible Light 14h 52m
Length of Day
13h 54m
Waning Gibbous, 47% of the Moon is Illuminated
May 2
Waning Gibbous
May 9
New
May 17
First Quarter
May 24
Full
May 31
Last Quarter

Hourly Weather History & Observations

Time (MDT) Temp. Windchill Dew Point Humidity Pressure Visibility Wind Dir Wind Speed Gust Speed Precip Events Conditions
12:53 AM 14.0 °F - 10.9 °F 88% 30.36 in 10.0 mi Calm Calm - N/A   Mostly Cloudy
1:46 AM 12.2 °F 6.1 °F 8.6 °F 85% 30.41 in 10.0 mi SSE 3.5 mph - N/A   Scattered Clouds
1:53 AM 10.9 °F 4.7 °F 9.0 °F 92% 30.37 in 10.0 mi East 3.5 mph - N/A   Mostly Cloudy
2:00 AM 10.4 °F 2.2 °F 8.6 °F 92% 30.41 in 10.0 mi East 4.6 mph - N/A   Scattered Clouds
2:53 AM 9.0 °F - 5.0 °F 84% 30.40 in 10.0 mi Calm Calm - N/A   Scattered Clouds
2:56 AM 8.6 °F - 5.0 °F 85% 30.42 in 10.0 mi Calm Calm - N/A   Mostly Cloudy
3:53 AM 12.0 °F - 10.0 °F 92% 30.41 in 10.0 mi Calm Calm - N/A   Overcast
4:53 AM 12.9 °F - 10.9 °F 92% 30.44 in 10.0 mi Calm Calm - 0.00 in   Overcast
5:48 AM 12.2 °F - 10.4 °F 92% 30.47 in 2.5 mi Calm Calm - 0.00 in Snow Light Snow
5:53 AM 12.9 °F - 10.0 °F 88% 30.48 in 3.0 mi Calm Calm - 0.00 in Snow Light Snow
6:06 AM 12.2 °F - 10.4 °F 92% 30.47 in 2.5 mi Calm Calm - 0.00 in Snow Light Snow
6:20 AM 12.2 °F - 8.6 °F 85% 30.48 in 3.0 mi Calm Calm - 0.00 in Snow Light Snow
6:53 AM 10.0 °F 3.6 °F 7.0 °F 87% 30.53 in 10.0 mi North 3.5 mph - 0.00 in   Mostly Cloudy
7:11 AM 10.4 °F 4.0 °F 6.8 °F 85% 30.49 in 10.0 mi NE 3.5 mph - N/A   Partly Cloudy
7:53 AM 15.1 °F 9.4 °F 10.9 °F 84% 30.52 in 10.0 mi North 3.5 mph - N/A   Clear
8:53 AM 19.9 °F 11.1 °F 7.0 °F 57% 30.51 in 10.0 mi North 6.9 mph - N/A   Scattered Clouds
9:53 AM 21.0 °F 10.6 °F 3.0 °F 46% 30.49 in 10.0 mi North 9.2 mph 18.4 mph N/A   Mostly Cloudy
10:53 AM 24.1 °F 13.7 °F 3.0 °F 40% 30.50 in 10.0 mi NNW 10.4 mph 21.9 mph N/A   Mostly Cloudy
11:53 AM 25.0 °F 14.8 °F 1.9 °F 37% 30.51 in 10.0 mi NNW 10.4 mph 24.2 mph N/A   Clear
12:53 PM 27.0 °F 16.1 °F 3.0 °F 36% 30.48 in 10.0 mi North 12.7 mph 19.6 mph N/A   Partly Cloudy
1:53 PM 28.0 °F 16.5 °F 3.9 °F 36% 30.49 in 10.0 mi NNW 15.0 mph 23.0 mph N/A   Clear
2:53 PM 30.0 °F 18.7 °F 3.9 °F 33% 30.49 in 10.0 mi North 16.1 mph 25.3 mph N/A   Clear
3:53 PM 30.9 °F 20.7 °F 6.1 °F 35% 30.43 in 10.0 mi North 13.8 mph - N/A   Clear
4:53 PM 32.0 °F 21.6 °F 5.0 °F 32% 30.42 in 10.0 mi North 15.0 mph - N/A   Clear
5:53 PM 32.0 °F 21.6 °F 6.1 °F 34% 30.42 in 10.0 mi North 15.0 mph 23.0 mph N/A   Clear
6:53 PM 30.0 °F 18.3 °F 5.0 °F 35% 30.46 in 10.0 mi North 17.3 mph - N/A   Clear
7:53 PM 27.0 °F 17.3 °F 6.1 °F 41% 30.45 in 10.0 mi North 10.4 mph 18.4 mph N/A   Clear
8:53 PM 26.1 °F 19.4 °F 7.0 °F 44% 30.45 in 10.0 mi North 5.8 mph - N/A   Clear
9:53 PM 21.9 °F 15.7 °F 8.1 °F 55% 30.46 in 10.0 mi NNE 4.6 mph - N/A   Clear
10:53 PM 21.0 °F 12.4 °F 9.0 °F 60% 30.42 in 10.0 mi NE 6.9 mph - N/A   Clear
11:53 PM 19.0 °F 10.0 °F 8.1 °F 62% 30.43 in 10.0 mi NE 6.9 mph - N/A   Clear